Regional Weather Roundup
Issued by NWS

Home | Current Version | Previous Version | Text Only | Print | Product List | Glossary On
Versions: 1 2 3 4 5 6 7 8 9 10 11 12 13 14 15 16 17 18 19 20 21 22 23 24 25 26 27 28 29 30 31 32 33 34 35 36 37 38 39 40 41 42 43 44 45 46 47 48 49 50
000
ASUS43 KLOT 070008
RWRIL

ILLINOIS REGIONAL WEATHER ROUNDUP
NATIONAL WEATHER SERVICE CHICAGO/ROMEOVILLE IL
600 PM CST SAT MAR 06 2021

NOTE: "FAIR" INDICATES FEW OR NO CLOUDS BELOW 12,000 FEET WITH NO
SIGNIFICANT WEATHER AND/OR OBSTRUCTIONS TO VISIBILITY.

* THESE STATIONS ARE NOT UNDER NWS QUALITY CONTROL. THEY ALSO MAY NOT
  REPORT WEATHER SUCH AS PRECIPITATION OR FOG.

ILZ001-002-007-009-015-016-024-070100-
NORTHWEST ILLINOIS

CITY           SKY/WX    TMP DP  RH WIND       PRES   REMARKS
MOLINE         CLEAR     48  29  47 E9        30.26S
6HR MIN TEMP:  48; 6HR MAX TEMP:  57;

STERLING*      CLEAR     42  28  57 NE7       30.30S
SAVANNA*       CLEAR     37  25  60 E6        30.30S WCI  33
$$

ILZ003-004-008-010-011-017-018-070100-
NORTH CENTRAL ILLINOIS

CITY           SKY/WX    TMP DP  RH WIND       PRES   REMARKS
ROCKFORD       CLEAR     41  21  44 N6        30.33R
6HR MIN TEMP:  41; 6HR MAX TEMP:  48;

FREEPORT*      CLEAR     34  24  68 NE3       30.32F
ROCHELLE*      CLEAR     38  27  64 NE6       30.31S WCI  34
DE KALB*       CLEAR     36  29  75 NE5       30.31S WCI  32
PERU*            N/A     44  33  63 CALM      30.29S
$$

ILZ005-006-012>014-019>023-070100-
NORTHEAST ILLINOIS

CITY           SKY/WX    TMP DP  RH WIND       PRES   REMARKS
CHICAGO-OHARE  CLEAR     41  25  53 E3        30.30S
6HR MIN TEMP:  40; 6HR MAX TEMP:  48;

CHICAGO-MIDWAY CLEAR     39  22  50 E7        30.32R WCI  34
6HR MIN TEMP:  39; 6HR MAX TEMP:  48;

AURORA         CLEAR     39  27  62 N5        30.30R
6HR MIN TEMP:  38; 6HR MAX TEMP:  45;

JOLIET*        CLEAR     45  24  44 N5        30.31R
WAUKEGAN       CLEAR     34  28  79 CALM      30.31S
6HR MIN TEMP:  34; 6HR MAX TEMP:  41;

DUPAGE AIRPORT CLEAR     40  22  48 NW7       30.30R
6HR MIN TEMP:  40; 6HR MAX TEMP:  49;

KANKAKEE*      CLEAR     43  27  53 N8        30.30S
WHEELING       CLEAR     39  25  57 E7        30.32S WCI  34
6HR MIN TEMP:  39; 6HR MAX TEMP:  45;

MORRIS*        CLEAR     41  29  64 CALM      30.29S
ROMEOVILLE*    CLEAR     39  27  63 E8        30.31R WCI  33
LANSING*       CLEAR     36  22  58 NE5       30.32R WCI  32
NORTHERLY ISL*   N/A     34  29  82 NE6         N/A  WCI  29
$$

LMZ740>746-070100-
SOUTHERN LAKE MICHIGAN

STATION/POSITION SKY/WX   TEMP    WIND        PRES    VSBY  WAVE
                          AIR SEA DIR/SP/G                  HT/PER
                          (F)     (DEG/KT/KT) (MB)    (MI)  (FT/S)
HARRISON CRIB              35      60/  5/  6   N/A
NORTHERLY ISL              33      30/  3/  7   N/A
CALUMET HARBOR                     50/  4/  5 1026.0
BURNS HARBOR               35      50/  6/  8 1027.1R
MICHIGAN CITY              34      50/  9/ 10   N/A
$$

ILZ025>027-034>036-040-047-049-050-058-095>099-070100-
WEST-CENTRAL ILLINOIS

CITY           SKY/WX    TMP DP  RH WIND       PRES   REMARKS
QUINCY         CLEAR     53  23  31 S3        30.25S
GALESBURG*     CLEAR     47  25  42 CALM      30.27F
MACOMB*        CLEAR     50  33  50 CALM      30.29S
JACKSONVILLE*  CLEAR     52  24  33 CALM      30.27S
PITTSFIELD*    CLEAR     54  24  32 CALM      30.28R
$$

ILZ028>032-037-038-041>044-048-051>054-059>061-070100-
CENTRAL ILLINOIS

CITY           SKY/WX    TMP DP  RH WIND       PRES   REMARKS
PONTIAC        CLEAR     43  32  65 N7        30.30R
BLOOMINGTON    CLEAR     48  27  44 NW3       30.28F
DECATUR        CLEAR     50  27  40 W3        30.28S
PEORIA         CLEAR     50  25  37 CALM      30.27F
6HR MIN TEMP:  50; 6HR MAX TEMP:  56;

LACON*         CLEAR     43  32  63 CALM      30.28S
LINCOLN*       CLEAR     48  23  36 CALM      30.28S
SPRINGFIELD    CLEAR     51  25  36 CALM      30.28F
6HR MIN TEMP:  50; 6HR MAX TEMP:  57;

TAYLORVILLE    CLEAR     48  27  43 S3        30.28F
$$

ILZ033-039-045-046-055>057-062-063-070100-
EAST-CENTRAL ILLINOIS

CITY           SKY/WX    TMP DP  RH WIND       PRES   REMARKS
CHAMPAIGN      CLEAR     44  29  55 NW3       30.28F
DANVILLE*      PTCLDY    45  29  53 NW6       30.30S
RANTOUL*       CLEAR     45  28  51 NW3       30.28F
MATTOON        CLEAR     46  29  51 CALM      30.28F
PARIS*         PTCLDY    45  31  59 CALM      30.30S
$$

ILZ079-100>102-070100-
SOUTHWEST ILLINOIS

CITY           SKY/WX    TMP DP  RH WIND       PRES   REMARKS
ALTON          CLEAR     50  32  50 SE5       30.28F
BELLEVILLE     CLEAR     49  30  49 SE7       30.27F
CAHOKIA*       CLEAR     50  27  40 SE7       30.28S
SPARTA*        CLEAR     46  32  57 E5        30.30S
$$

ILZ064>066-069>071-074>076-080>082-084>086-088>090-092>094-070100-
SOUTH-CENTRAL ILLINOIS

CITY           SKY/WX    TMP DP  RH WIND       PRES   REMARKS
CARBONDALE     CLEAR     50  27  40 E5        30.30S
6HR MIN TEMP:  50; 6HR MAX TEMP:  55;

CAIRO*         CLEAR     50  25  37 MISG      30.30S
EFFINGHAM*     CLEAR     48  28  45 CALM      30.31F
MARION         PTCLDY    46  27  46 CALM      30.31F
MT. VERNON     CLEAR     50  27  40 CALM      30.31S
CENTRALIA*     CLEAR     51  26  37 CALM      30.30S
SALEM*         CLEAR     51  28  41 CALM      30.30F
$$

ILZ067-068-072-073-078-083-087-091-070100-
SOUTHEAST ILLINOIS

CITY           SKY/WX    TMP DP  RH WIND       PRES   REMARKS
LAWRENCEVILLE  CLEAR     48  27  44 W6        30.31S
FLORA*         CLEAR     48  28  46 W3        30.31S
FAIRFIELD*     CLEAR     48  26  41 CALM      30.30S
HARRISBURG*    CLEAR     49  18  29 NE3       30.32S
ROBINSON*      CLEAR     45  29  53 CALM      30.31S
CARMI*         CLEAR     46  27  46 CALM      30.31S
$$

ABBREVIATIONS USED IN REMARKS
   TC - TEMPERATURE IN CELSIUS
  WCI - WIND CHILL INDEX
   HX - HEAT INDEX
  VSB - VISIBILITY
$$




USA.gov is the U.S. government's official web portal to all federal, state and local government web resources and services.